sat.trackr.live / text

‹ back to catalog

ONEWEB-0564

NORAD 55801 · 2023-029F

PAYLOAD ACTIVE UNKNOWN

§ Identity

Operator
Country
UK
Launch date
2023-03-09
Launch site
AFETR
Launch vehicle
Mass (kg)
RCS (m²)

Purposes: comms

External: N2YO · Heavens-Above · Gunter

§ Orbital elements

Epoch: 2026-09-20T05:02:38.249952Z

Period
109.03 min
Inclination
87.9141°
Eccentricity
0.0002295
Mean motion
13.20772311 rev/d
Perigee alt
1,180.0 km
Apogee alt
1,183.5 km
Semi-major
7,559.9 km
B*
-1.7373e-6
RAAN
255.4925°
Arg perigee
94.1855°
Mean anomaly
265.9541°
Rev number
17,369

§ Raw data

ONEWEB-05641 55801U 23029F   26263.21016493  .00000012  00000+0 -17373-5 0  99992 55801  87.9141 255.4925 0002295  94.1855 265.9541 13.20772311173698

JSON: /api/v1/satellites/55801 · /tle

For live sub-satellite position, see the globe view (requires WebGL).

§ Visibility from observer

Set your observer location to see the next 7 days of passes ≥ 10°. The values pass through the URL so the page stays shareable.

No JS? Fill the form by hand. The geolocation button needs JavaScript.